Wind_Speed
32 33 33 35 37 39 41 42 43 44 45 47 48 49 48 46 47 46 45 44 42 40 39 41 41 39 37 35 34 32 32 31 30 28 28 28 29 29 28 28 28 29 30 30
34 34 36 37 39 41 42 44 45 46 48 50 51 52 51 50 49 48 48 47 45 43 42 41 41 39 37 36 35 34 33 31 30 30 30 30 30 30 29 29 29 30 30 31
36 36 38 39 40 42 43 45 47 49 51 53 55 54 52 52 52 51 51 49 48 47 46 44 42 40 38 37 36 35 34 32 31 30 30 30 30 31 30 30 30 31 31 33
37 37 38 40 41 43 44 46 49 51 53 54 55 59 53 53 54 54 53 52 50 49 48 47 44 41 39 39 38 37 35 33 31 30 29 30 31 31 31 31 31 32 33 35
37 37 39 40 41 44 45 47 49 51 53 55 56 61 57 53 53 53 53 54 53 51 50 48 45 41 40 40 39 37 35 33 31 30 29 29 30 30 31 31 32 33 35 36
36 38 39 40 42 44 46 47 49 51 54 57 54 58 59 52 51 51 52 53 54 53 51 49 46 43 41 40 39 37 35 34 31 29 29 29 29 30 31 32 33 34 36 37
36 37 39 40 41 42 44 46 48 51 53 54 51 56 57 51 52 53 53 53 54 53 51 49 46 43 40 39 38 37 35 33 31 30 29 29 29 30 31 32 34 35 37 38
36 36 37 38 39 40 42 43 45 48 50 50 51 54 50 47 51 54 54 54 54 53 51 48 45 42 40 39 38 37 35 33 31 30 30 30 30 30 32 33 34 35 37 38
35 35 34 34 35 36 37 38 39 42 44 47 46 44 40 39 42 45 48 51 52 51 49 46 44 42 40 40 38 37 34 32 31 31 30 30 30 31 32 33 34 36 37 39
33 32 30 31 31 31 31 31 33 36 41 44 42 38 33 29 33 35 39 44 49 49 47 45 43 41 40 39 38 36 34 32 31 30 30 30 30 31 32 33 35 36 38 40
28 28 26 26 25 25 27 27 29 32 36 39 38 26 20 17 20 28 33 40 45 45 44 43 42 41 40 38 37 35 33 31 30 30 30 30 30 31 32 33 35 37 39 41
24 23 21 20 21 22 22 22 26 29 31 33 33 15 9 8 13 21 30 38 42 42 42 41 40 39 38 37 35 33 31 31 30 30 30 30 30 31 32 34 35 38 40 43
20 19 18 17 18 19 20 20 22 26 27 27 26 11 4 8 15 22 30 35 38 39 39 38 38 37 36 35 33 31 30 30 29 29 29 29 29 31 33 34 37 39 42 44
18 17 17 15 16 18 19 19 21 24 24 21 15 4 7 12 21 26 30 34 35 35 35 35 35 34 33 33 31 30 29 28 28 28 28 28 30 31 33 36 38 41 43 45
16 15 15 14 15 16 17 17 18 18 16 13 4 6 13 18 23 28 30 32 33 33 32 32 31 31 31 30 29 28 27 27 27 27 27 28 30 32 35 37 40 42 44 46
14 13 13 11 12 13 12 12 11 9 5 2 8 15 18 21 24 26 28 29 30 30 29 29 29 29 28 27 27 26 26 26 26 27 27 29 31 33 36 39 41 43 45 48
12 11 9 6 7 6 5 4 3 0 5 11 15 18 19 21 23 24 25 26 26 27 27 27 26 26 26 25 25 25 25 25 25 26 27 30 32 35 37 40 42 44 47 49
10 9 6 3 2 3 2 2 2 6 9 12 16 18 19 21 21 22 23 24 24 24 24 24 24 24 23 23 23 23 23 23 25 26 29 32 34 36 38 40 42 45 48 50
10 8 5 2 0 1 1 3 6 8 10 11 13 15 16 17 18 19 19 21 22 22 22 22 21 21 20 20 21 21 22 24 26 28 31 33 35 37 39 41 44 46 48 52
10 8 6 4 2 2 4 5 8 10 10 10 11 12 12 13 14 14 15 16 17 18 18 18 18 18 19 20 20 22 24 26 28 30 32 33 35 37 40 42 45 47 50 53
11 10 8 6 5 5 6 7 8 10 9 8 7 9 9 10 11 12 13 14 14 15 16 16 17 18 19 20 21 23 25 27 28 30 32 34 36 38 41 43 46 49 52 54
12 11 10 8 7 7 7 7 7 7 8 7 7 9 9 10 11 12 13 13 14 14 15 16 17 18 19 20 22 23 25 26 28 30 32 34 37 39 41 44 47 50 52 54
13 13 12 10 9 9 9 9 9 8 9 9 9 9 9 10 12 12 13 14 14 15 16 16 17 18 18 20 21 23 25 26 28 31 33 35 38 40 43 46 49 51 53 54
14 14 14 12 11 11 11 10 9 9 9 9 10 10 10 11 12 13 13 14 14 15 15 15 16 17 19 20 22 23 25 27 29 31 34 36 39 42 44 47 49 51 52 54
15 15 15 14 14 13 13 12 10 9 9 9 10 10 10 10 11 12 12 12 13 13 14 15 16 17 19 20 22 24 26 28 30 33 35 38 41 43 45 47 49 51 53 56
15 15 16 16 15 14 13 13 12 11 11 10 10 10 10 10 11 11 11 12 12 13 14 15 16 18 19 21 22 25 27 30 32 35 37 40 42 44 45 47 49 51 54 58
Wind_Direction
263 266 269 270 271 272 272 271 270 267 264 261 258 256 253 248 246 246 246 245 244 243 241 242 244 244 243 244 246 246 247 248 250 251 251 252 252 253 255 258 262 266 269 272
264 268 270 271 273 273 273 272 271 268 265 263 259 256 254 251 248 247 246 245 244 242 241 242 243 243 243 243 245 246 247 247 249 250 250 250 252 254 256 259 262 266 270 273
266 270 272 273 274 274 273 272 270 268 266 264 263 258 254 253 251 248 246 245 244 242 241 241 242 242 241 242 243 245 246 247 247 248 249 250 252 255 257 260 264 267 271 275
268 271 273 274 274 273 273 272 270 269 268 266 265 263 254 253 251 249 247 245 243 242 240 239 239 240 239 240 242 244 246 246 247 247 248 249 252 254 258 261 265 269 273 278
269 271 274 275 275 274 274 272 271 271 269 268 266 266 261 254 251 250 247 244 241 240 238 237 237 237 237 238 241 243 245 246 246 247 249 251 253 256 259 263 267 271 276 280
271 274 275 276 275 275 275 273 272 271 270 270 270 268 264 257 254 249 246 242 238 236 234 233 232 233 234 236 239 242 244 244 246 247 249 251 254 257 260 265 269 273 277 281
271 275 276 277 277 276 276 275 274 273 272 273 272 269 267 261 255 249 242 238 234 231 229 229 228 229 231 233 236 239 241 242 244 246 249 252 256 259 263 267 271 275 279 283
274 276 277 277 277 277 276 275 275 277 277 276 272 271 271 265 257 248 241 234 230 226 224 224 223 223 226 229 232 236 238 239 242 245 249 253 257 261 265 269 273 278 282 286
278 279 279 278 278 278 278 278 278 277 279 279 279 278 274 265 257 247 237 228 222 219 218 218 218 218 222 225 229 232 235 237 240 244 249 254 258 263 267 272 276 280 284 288
279 280 280 280 280 280 279 278 276 277 281 284 286 285 283 269 252 238 227 217 213 212 212 212 212 214 218 222 226 230 233 236 240 245 250 255 260 265 269 274 279 283 287 290
278 280 281 281 282 278 278 279 280 279 282 286 291 297 292 275 243 224 212 204 203 204 204 205 207 212 216 220 224 228 232 236 241 246 252 256 262 267 272 277 281 285 288 291
276 278 280 281 279 278 282 285 282 282 286 289 294 309 293 238 206 197 191 190 191 193 196 201 205 211 215 219 223 226 230 236 242 247 253 259 265 270 275 280 284 287 290 293
272 274 279 278 277 280 284 285 283 283 286 289 293 308 198 181 168 170 174 178 182 187 193 198 204 209 214 217 220 224 230 236 243 249 255 261 268 273 278 283 286 289 292 294
269 276 279 280 278 282 285 285 284 284 286 293 299 305 149 152 155 160 166 171 178 183 189 196 202 207 211 214 218 223 230 237 244 251 257 264 271 276 281 285 288 291 293 296
268 277 281 284 285 287 287 287 285 285 288 293 305 156 142 147 153 157 163 168 175 181 188 194 199 204 208 212 217 224 231 239 246 253 261 268 274 279 283 286 290 292 295 297
265 276 282 289 289 288 296 290 285 289 283 182 147 149 149 153 157 160 164 170 175 181 187 192 197 202 206 211 218 226 233 241 250 258 266 273 278 282 285 289 291 294 296 298
259 270 281 284 288 289 316 303 294 156 145 145 149 153 155 159 163 167 170 174 178 182 187 191 197 202 207 214 221 229 238 248 257 265 272 277 281 285 288 291 293 296 298 300
248 255 271 265 289 331 332 307 164 139 136 139 147 154 162 165 169 172 175 176 180 185 190 195 200 205 212 220 229 239 248 257 265 271 276 280 284 287 290 293 295 298 300 302
234 237 239 226 225 19 123 137 143 144 144 147 152 155 159 166 171 176 179 182 184 189 194 199 205 213 222 231 240 249 258 265 271 276 280 284 287 290 292 295 297 299 301 304
219 215 209 191 154 120 150 144 143 146 147 150 151 151 156 164 168 174 179 184 190 197 204 211 218 227 235 243 251 258 265 270 275 279 283 286 289 292 294 297 299 301 303 305
212 206 200 192 162 151 159 155 160 164 163 162 161 164 165 173 181 187 192 198 204 211 218 225 233 240 246 253 259 265 270 275 279 283 286 289 292 294 296 299 301 303 305 307
208 203 199 195 183 175 180 186 187 186 187 189 190 186 189 195 200 203 206 210 217 223 230 236 242 248 254 260 265 270 274 279 283 286 289 292 294 297 299 301 303 305 307 308
207 203 197 195 193 192 195 199 203 207 210 211 209 207 209 212 215 218 220 223 227 233 238 243 249 254 260 266 271 275 279 283 286 289 292 294 297 299 300 303 305 307 308 310
205 202 201 202 205 206 207 213 217 218 220 219 219 223 226 225 225 224 225 229 235 240 244 249 255 262 268 272 276 279 283 286 290 292 295 297 299 301 303 305 307 308 310 311
205 205 207 211 216 217 218 222 225 226 228 229 228 228 227 224 222 224 228 234 240 245 250 256 261 266 272 276 280 283 287 290 293 296 298 300 302 303 305 307 309 310 311 313
211 212 214 219 221 223 224 225 226 229 231 232 231 230 226 225 226 227 232 239 245 251 257 263 268 273 278 282 285 288 291 294 297 298 300 302 303 305 307 309 311 312 314 315
Height
5683 5686 5687 5687 5686 5687 5688 5688 5689 5690 5690 5691 5694 5696 5701 5705 5709 5712 5716 5720 5724 5729 5733 5736 5739 5743 5747 5750 5752 5754 5756 5758 5760 5762 5763 5764 5764 5765 5766 5767 5767 5767 5767 5766
5676 5678 5678 5677 5677 5678 5678 5678 5678 5679 5678 5678 5681 5684 5690 5693 5698 5703 5706 5711 5716 5720 5724 5728 5731 5735 5739 5742 5745 5747 5749 5751 5754 5755 5757 5758 5758 5759 5760 5761 5761 5761 5760 5760
5667 5670 5669 5669 5668 5668 5668 5667 5666 5665 5665 5665 5666 5671 5679 5683 5685 5690 5695 5700 5705 5710 5715 5718 5722 5727 5731 5734 5737 5739 5742 5744 5747 5749 5750 5751 5752 5753 5754 5754 5754 5754 5753 5752
5659 5660 5660 5659 5658 5657 5657 5655 5654 5652 5651 5653 5653 5652 5666 5670 5672 5678 5684 5689 5694 5699 5704 5709 5713 5718 5722 5726 5729 5732 5735 5737 5740 5742 5744 5745 5746 5747 5747 5748 5747 5747 5746 5745
5651 5651 5650 5650 5649 5646 5646 5644 5642 5640 5638 5638 5640 5635 5646 5655 5660 5665 5670 5675 5680 5686 5692 5698 5704 5710 5714 5717 5721 5725 5728 5730 5733 5735 5737 5738 5739 5740 5740 5740 5740 5740 5739 5737
5642 5641 5641 5640 5638 5636 5634 5632 5630 5627 5624 5624 5629 5620 5626 5641 5646 5650 5653 5658 5665 5673 5680 5687 5694 5700 5705 5709 5713 5717 5721 5723 5726 5728 5730 5731 5732 5733 5733 5733 5733 5732 5731 5729
5633 5633 5631 5630 5628 5626 5623 5621 5618 5614 5611 5612 5613 5606 5611 5625 5626 5628 5634 5640 5648 5658 5668 5676 5684 5691 5697 5702 5706 5710 5713 5716 5719 5721 5723 5725 5726 5726 5726 5726 5726 5725 5723 5721
5623 5625 5623 5621 5618 5616 5613 5610 5608 5604 5600 5598 5596 5593 5600 5605 5603 5605 5613 5623 5632 5644 5656 5666 5675 5683 5689 5694 5698 5702 5706 5710 5712 5715 5716 5718 5719 5719 5719 5719 5718 5716 5715 5712
5614 5615 5613 5611 5608 5607 5604 5601 5599 5594 5588 5584 5582 5583 5585 5586 5584 5587 5594 5605 5619 5633 5645 5657 5666 5674 5681 5686 5691 5695 5699 5703 5706 5708 5710 5711 5712 5712 5712 5711 5710 5708 5706 5704
5606 5606 5605 5602 5600 5598 5596 5594 5590 5586 5581 5575 5573 5572 5572 5571 5569 5572 5580 5592 5608 5622 5636 5647 5658 5666 5673 5679 5684 5689 5693 5696 5699 5702 5703 5704 5705 5705 5704 5703 5702 5700 5698 5695
5598 5598 5598 5596 5594 5592 5589 5588 5584 5580 5577 5572 5565 5566 5565 5561 5560 5564 5572 5584 5599 5615 5629 5641 5651 5659 5666 5672 5678 5683 5687 5690 5693 5695 5697 5698 5698 5698 5697 5696 5694 5692 5689 5686
5591 5591 5591 5591 5589 5585 5584 5583 5580 5577 5574 5568 5562 5561 5561 5559 5558 5562 5570 5582 5596 5611 5624 5636 5645 5654 5661 5667 5672 5677 5681 5685 5687 5689 5690 5691 5691 5690 5689 5688 5686 5683 5680 5676
5587 5587 5587 5587 5586 5583 5580 5579 5575 5572 5569 5565 5560 5561 5560 5560 5560 5565 5574 5585 5598 5610 5622 5632 5641 5649 5656 5662 5667 5672 5676 5678 5681 5682 5683 5684 5684 5683 5682 5680 5678 5674 5670 5666
5582 5583 5583 5583 5580 5578 5576 5575 5572 5569 5566 5563 5560 5560 5562 5562 5565 5571 5580 5589 5600 5610 5621 5630 5638 5645 5652 5657 5662 5666 5670 5673 5675 5676 5677 5677 5677 5676 5674 5672 5669 5665 5661 5656
5578 5579 5579 5579 5576 5574 5573 5571 5569 5566 5565 5563 5562 5563 5564 5567 5571 5577 5585 5594 5603 5612 5620 5628 5636 5642 5648 5653 5658 5662 5665 5667 5669 5670 5670 5670 5670 5668 5666 5663 5660 5655 5651 5646
5575 5576 5576 5575 5574 5572 5570 5569 5568 5566 5565 5564 5565 5567 5570 5573 5578 5583 5590 5598 5605 5613 5620 5627 5634 5639 5645 5649 5653 5656 5659 5661 5662 5663 5664 5663 5662 5660 5657 5654 5650 5645 5640 5635
5573 5574 5574 5573 5572 5571 5571 5570 5569 5567 5567 5568 5569 5572 5575 5579 5583 5588 5594 5600 5607 5614 5620 5626 5632 5637 5641 5645 5648 5651 5653 5655 5656 5657 5657 5656 5654 5651 5648 5644 5640 5635 5630 5624
5570 5571 5571 5572 5572 5572 5574 5571 5570 5570 5571 5572 5574 5577 5580 5583 5588 5592 5597 5602 5608 5614 5620 5625 5629 5634 5638 5641 5644 5647 5649 5650 5650 5650 5649 5647 5645 5642 5639 5635 5630 5625 5619 5613
5568 5569 5570 5571 5571 5572 5574 5573 5573 5574 5576 5577 5579 5581 5584 5588 5592 5596 5600 5605 5609 5614 5619 5623 5627 5631 5635 5638 5640 5642 5643 5643 5643 5642 5641 5639 5636 5633 5629 5625 5620 5615 5609 5602
5566 5568 5570 5571 5572 5573 5576 5575 5576 5579 5580 5581 5583 5585 5588 5591 5595 5599 5602 5606 5611 5615 5618 5622 5626 5629 5631 5634 5635 5637 5637 5637 5636 5635 5633 5630 5628 5624 5620 5615 5610 5604 5598 5591
5565 5568 5570 5571 5572 5574 5577 5577 5580 5582 5584 5585 5586 5589 5591 5594 5597 5600 5603 5607 5610 5613 5617 5620 5623 5625 5627 5629 5630 5630 5630 5629 5628 5627 5625 5622 5618 5614 5610 5605 5600 5594 5587 5580
5564 5567 5569 5571 5573 5578 5577 5579 5581 5583 5584 5586 5588 5590 5593 5595 5597 5600 5603 5606 5609 5612 5614 5617 5619 5621 5623 5624 5624 5624 5623 5622 5621 5619 5616 5613 5609 5605 5600 5595 5589 5583 5576 5569
5563 5566 5568 5571 5575 5576 5577 5579 5581 5582 5584 5586 5588 5590 5592 5594 5597 5599 5601 5604 5606 5609 5611 5613 5615 5616 5617 5618 5618 5617 5616 5615 5613 5611 5608 5604 5600 5596 5591 5585 5579 5572 5564 5557
5562 5564 5567 5570 5572 5574 5576 5578 5580 5582 5584 5585 5587 5589 5591 5593 5595 5597 5599 5602 5604 5605 5607 5609 5610 5611 5612 5612 5611 5611 5609 5608 5605 5603 5599 5595 5591 5586 5580 5574 5568 5560 5553 5545
5561 5563 5566 5568 5571 5573 5575 5577 5579 5581 5583 5584 5586 5588 5589 5591 5593 5595 5597 5599 5601 5602 5604 5605 5606 5606 5606 5606 5605 5604 5602 5600 5597 5594 5590 5586 5581 5576 5570 5563 5556 5549 5541 5532
5559 5562 5564 5567 5569 5571 5573 5576 5578 5580 5581 5583 5585 5586 5588 5590 5591 5593 5595 5597 5598 5599 5600 5601 5601 5601 5601 5600 5599 5597 5595 5592 5589 5586 5581 5577 5571 5566 5559 5553 5545 5536 5529 5519